QPF
0.01 0.01 0.01 0.01 0.00 0.00 0.00 0.00 0.00 0.00 0.00 0.00 0.00 0.00 0.00 0.00 0.00 0.00 0.00 0.00 0.00 0.00 0.01 0.01 0.02 0.03 0.03 0.03 0.03 0.03 0.03 0.03 0.04 0.04 0.04 0.05 0.05 0.05 0.07 0.07 0.05 0.05 0.03 0.02
0.01 0.01 0.00 0.00 0.00 0.00 0.00 0.01 0.00 0.00 0.00 0.00 0.00 0.00 0.00 0.00 0.00 0.00 0.00 0.00 0.00 0.00 0.01 0.01 0.02 0.03 0.03 0.03 0.03 0.03 0.03 0.03 0.04 0.04 0.03 0.04 0.04 0.04 0.06 0.07 0.06 0.04 0.03 0.02
0.01 0.00 0.00 0.00 0.00 0.00 0.01 0.01 0.00 0.00 0.00 0.00 0.00 0.00 0.00 0.00 0.00 0.00 0.00 0.00 0.00 0.00 0.00 0.01 0.02 0.02 0.03 0.03 0.03 0.03 0.04 0.03 0.03 0.03 0.03 0.04 0.05 0.05 0.06 0.06 0.06 0.05 0.03 0.02
0.01 0.00 0.00 0.00 0.01 0.01 0.01 0.01 0.00 0.00 0.00 0.00 0.00 0.01 0.00 0.00 0.00 0.00 0.00 0.00 0.00 0.00 0.00 0.01 0.01 0.01 0.02 0.02 0.03 0.03 0.03 0.04 0.03 0.02 0.02 0.02 0.03 0.03 0.03 0.04 0.05 0.05 0.03 0.02
0.01 0.00 0.00 0.01 0.00 0.00 0.01 0.00 0.01 0.01 0.01 0.01 0.01 0.02 0.00 0.00 0.00 0.00 0.00 0.00 0.00 0.00 0.00 0.01 0.01 0.01 0.02 0.02 0.02 0.02 0.03 0.04 0.04 0.03 0.02 0.02 0.02 0.02 0.02 0.03 0.05 0.04 0.03 0.02
0.01 0.00 0.01 0.01 0.00 0.01 0.01 0.01 0.01 0.01 0.02 0.02 0.01 0.01 0.01 0.00 0.01 0.01 0.00 0.00 0.00 0.00 0.00 0.01 0.01 0.01 0.02 0.03 0.02 0.02 0.02 0.02 0.04 0.04 0.03 0.03 0.03 0.02 0.02 0.02 0.04 0.03 0.03 0.02
0.01 0.01 0.00 0.01 0.01 0.01 0.01 0.02 0.02 0.02 0.03 0.02 0.00 0.00 0.01 0.01 0.01 0.01 0.01 0.00 0.00 0.00 0.00 0.01 0.01 0.01 0.02 0.03 0.02 0.02 0.02 0.02 0.02 0.05 0.05 0.04 0.03 0.03 0.03 0.02 0.02 0.03 0.03 0.02
0.01 0.01 0.00 0.00 0.01 0.01 0.01 0.01 0.02 0.02 0.01 0.00 0.00 0.00 0.01 0.01 0.01 0.01 0.01 0.00 0.00 0.00 0.00 0.01 0.01 0.01 0.01 0.02 0.02 0.02 0.02 0.02 0.02 0.03 0.05 0.06 0.05 0.04 0.03 0.03 0.03 0.03 0.03 0.02
0.01 0.01 0.00 0.00 0.00 0.00 0.01 0.01 0.01 0.01 0.01 0.01 0.01 0.01 0.01 0.00 0.00 0.00 0.01 0.00 0.00 0.00 0.01 0.01 0.01 0.01 0.01 0.01 0.02 0.01 0.02 0.02 0.02 0.02 0.03 0.04 0.05 0.05 0.04 0.03 0.03 0.02 0.03 0.02
0.01 0.01 0.01 0.00 0.01 0.01 0.01 0.01 0.01 0.02 0.02 0.01 0.01 0.01 0.02 0.01 0.00 0.00 0.00 0.01 0.01 0.01 0.01 0.01 0.02 0.02 0.01 0.01 0.01 0.01 0.01 0.02 0.02 0.02 0.02 0.03 0.03 0.05 0.05 0.05 0.03 0.02 0.02 0.02
0.01 0.02 0.01 0.01 0.01 0.01 0.01 0.01 0.02 0.02 0.02 0.02 0.01 0.01 0.01 0.01 0.00 0.00 0.00 0.01 0.01 0.01 0.01 0.01 0.01 0.01 0.01 0.01 0.01 0.01 0.01 0.02 0.02 0.02 0.02 0.03 0.03 0.03 0.04 0.04 0.05 0.04 0.02 0.02
0.01 0.02 0.01 0.01 0.00 0.00 0.00 0.00 0.01 0.02 0.02 0.02 0.02 0.02 0.01 0.00 0.00 0.00 0.01 0.01 0.01 0.01 0.01 0.01 0.01 0.01 0.01 0.01 0.01 0.01 0.01 0.02 0.02 0.02 0.02 0.02 0.02 0.03 0.03 0.03 0.03 0.03 0.03 0.02
0.01 0.04 0.04 0.01 0.01 0.01 0.01 0.01 0.00 0.01 0.03 0.02 0.02 0.01 0.00 0.00 0.01 0.01 0.02 0.01 0.01 0.01 0.01 0.00 0.01 0.01 0.01 0.01 0.01 0.00 0.00 0.01 0.01 0.01 0.01 0.01 0.01 0.01 0.02 0.02 0.02 0.02 0.02 0.02
0.03 0.06 0.04 0.02 0.00 0.00 0.01 0.01 0.01 0.02 0.05 0.03 0.02 0.01 0.00 0.00 0.01 0.01 0.01 0.01 0.01 0.01 0.00 0.00 0.01 0.02 0.01 0.01 0.01 0.01 0.00 0.00 0.01 0.01 0.01 0.01 0.01 0.01 0.01 0.01 0.01 0.01 0.02 0.02
0.03 0.06 0.04 0.01 0.00 0.00 0.00 0.00 0.00 0.01 0.01 0.02 0.01 0.01 0.00 0.00 0.00 0.01 0.01 0.01 0.01 0.00 0.00 0.01 0.01 0.01 0.01 0.01 0.01 0.01 0.01 0.00 0.01 0.01 0.01 0.01 0.00 0.01 0.01 0.01 0.01 0.01 0.01 0.01
0.03 0.05 0.04 0.03 0.01 0.00 0.00 0.00 0.00 0.00 0.00 0.00 0.01 0.01 0.01 0.01 0.01 0.01 0.01 0.01 0.01 0.00 0.00 0.00 0.00 0.01 0.01 0.01 0.01 0.01 0.01 0.00 0.00 0.00 0.01 0.01 0.01 0.01 0.01 0.01 0.01 0.01 0.01 0.01
0.05 0.05 0.07 0.06 0.02 0.02 0.02 0.00 0.00 0.00 0.00 0.00 0.00 0.01 0.00 0.01 0.01 0.01 0.01 0.01 0.01 0.01 0.01 0.00 0.00 0.00 0.01 0.01 0.01 0.01 0.01 0.00 0.00 0.00 0.01 0.01 0.01 0.01 0.01 0.01 0.01 0.01 0.01 0.02
0.04 0.05 0.08 0.08 0.05 0.05 0.02 0.00 0.00 0.00 0.00 0.00 0.01 0.01 0.01 0.01 0.01 0.01 0.01 0.01 0.01 0.01 0.01 0.00 0.00 0.00 0.00 0.00 0.01 0.01 0.01 0.01 0.00 0.00 0.00 0.00 0.01 0.01 0.01 0.01 0.01 0.01 0.01 0.01
0.02 0.03 0.07 0.09 0.08 0.04 0.01 0.00 0.00 0.00 0.00 0.00 0.00 0.01 0.01 0.01 0.01 0.01 0.01 0.01 0.01 0.01 0.01 0.01 0.01 0.01 0.00 0.00 0.00 0.00 0.01 0.01 0.00 0.01 0.01 0.01 0.01 0.01 0.01 0.01 0.01 0.01 0.01 0.01
0.01 0.03 0.06 0.08 0.08 0.05 0.01 0.00 0.00 0.01 0.01 0.01 0.00 0.01 0.01 0.01 0.02 0.02 0.01 0.01 0.01 0.01 0.01 0.01 0.00 0.01 0.00 0.01 0.00 0.00 0.00 0.01 0.01 0.01 0.01 0.01 0.01 0.01 0.02 0.01 0.01 0.01 0.01 0.01
0.02 0.03 0.05 0.06 0.06 0.03 0.02 0.01 0.01 0.03 0.03 0.02 0.01 0.01 0.01 0.02 0.02 0.02 0.02 0.02 0.02 0.01 0.01 0.01 0.01 0.01 0.00 0.00 0.00 0.00 0.00 0.01 0.01 0.01 0.01 0.01 0.01 0.01 0.02 0.01 0.01 0.01 0.01 0.01
0.01 0.02 0.03 0.03 0.05 0.04 0.02 0.02 0.03 0.04 0.03 0.02 0.02 0.02 0.02 0.02 0.02 0.01 0.01 0.01 0.01 0.01 0.01 0.01 0.01 0.01 0.01 0.01 0.01 0.01 0.01 0.01 0.01 0.01 0.01 0.01 0.01 0.01 0.01 0.01 0.01 0.01 0.01 0.01
0.01 0.01 0.01 0.02 0.02 0.02 0.02 0.03 0.04 0.03 0.03 0.03 0.02 0.02 0.02 0.01 0.01 0.01 0.01 0.01 0.01 0.01 0.01 0.01 0.01 0.01 0.01 0.01 0.01 0.01 0.01 0.01 0.01 0.01 0.01 0.01 0.01 0.01 0.01 0.01 0.01 0.01 0.01 0.01
0.01 0.01 0.01 0.02 0.02 0.02 0.02 0.03 0.03 0.02 0.02 0.02 0.02 0.02 0.01 0.01 0.01 0.01 0.01 0.01 0.01 0.01 0.01 0.01 0.01 0.00 0.00 0.00 0.00 0.00 0.00 0.00 0.01 0.01 0.01 0.01 0.01 0.01 0.01 0.01 0.01 0.01 0.01 0.01
0.01 0.00 0.01 0.02 0.02 0.02 0.01 0.02 0.02 0.02 0.02 0.02 0.02 0.02 0.01 0.01 0.01 0.01 0.01 0.01 0.01 0.01 0.01 0.01 0.01 0.00 0.00 0.00 0.00 0.00 0.00 0.00 0.00 0.00 0.00 0.00 0.00 0.01 0.01 0.01 0.01 0.01 0.01 0.01
0.01 0.00 0.01 0.01 0.01 0.01 0.02 0.02 0.02 0.02 0.02 0.02 0.02 0.01 0.01 0.01 0.00 0.00 0.00 0.00 0.01 0.01 0.01 0.01 0.01 0.00 0.00 0.00 0.00 0.00 0.00 0.00 0.00 0.00 0.00 0.00 0.00 0.00 0.01 0.01 0.02 0.02 0.02 0.02
MSLP
1016.37 1016.22 1016.02 1015.84 1015.73 1015.77 1015.96 1016.32 1016.80 1017.32 1017.82 1018.24 1018.54 1018.72 1018.84 1018.95 1019.13 1019.46 1019.96 1020.62 1021.40 1022.23 1022.99 1023.59 1023.98 1024.12 1024.04 1023.80 1023.50 1023.24 1023.09 1023.12 1023.35 1023.74 1024.23 1024.76 1025.24 1025.61 1025.84 1025.94 1025.91 1025.82 1025.70 1025.61
1016.38 1016.08 1015.75 1015.44 1015.26 1015.27 1015.50 1015.92 1016.49 1017.12 1017.71 1018.18 1018.50 1018.67 1018.73 1018.78 1018.90 1019.18 1019.67 1020.35 1021.19 1022.10 1022.96 1023.67 1024.15 1024.36 1024.33 1024.12 1023.82 1023.54 1023.38 1023.41 1023.63 1024.04 1024.57 1025.15 1025.68 1026.12 1026.41 1026.55 1026.56 1026.49 1026.38 1026.28
1016.47 1016.04 1015.58 1015.17 1014.92 1014.89 1015.12 1015.59 1016.21 1016.89 1017.52 1018.00 1018.30 1018.41 1018.41 1018.38 1018.43 1018.67 1019.14 1019.86 1020.77 1021.78 1022.78 1023.62 1024.24 1024.57 1024.64 1024.50 1024.24 1023.98 1023.82 1023.83 1024.05 1024.45 1024.98 1025.57 1026.14 1026.61 1026.95 1027.13 1027.18 1027.13 1027.04 1026.95
1016.64 1016.12 1015.56 1015.07 1014.76 1014.71 1014.94 1015.41 1016.04 1016.71 1017.30 1017.74 1017.96 1017.98 1017.88 1017.76 1017.75 1017.94 1018.42 1019.18 1020.18 1021.32 1022.46 1023.48 1024.26 1024.76 1024.97 1024.94 1024.76 1024.54 1024.40 1024.40 1024.59 1024.96 1025.46 1026.03 1026.59 1027.07 1027.43 1027.64 1027.73 1027.72 1027.66 1027.58
1016.85 1016.28 1015.68 1015.16 1014.83 1014.76 1014.97 1015.41 1016.00 1016.61 1017.12 1017.44 1017.54 1017.44 1017.22 1017.01 1016.92 1017.09 1017.58 1018.40 1019.50 1020.77 1022.08 1023.28 1024.25 1024.93 1025.31 1025.41 1025.34 1025.19 1025.07 1025.06 1025.21 1025.53 1025.98 1026.50 1027.03 1027.50 1027.86 1028.10 1028.22 1028.25 1028.23 1028.18
1017.03 1016.46 1015.87 1015.38 1015.07 1015.00 1015.20 1015.60 1016.11 1016.61 1016.99 1017.16 1017.12 1016.88 1016.54 1016.23 1016.09 1016.25 1016.76 1017.65 1018.84 1020.24 1021.70 1023.07 1024.23 1025.08 1025.62 1025.88 1025.91 1025.84 1025.76 1025.75 1025.87 1026.13 1026.52 1026.98 1027.45 1027.89 1028.24 1028.50 1028.66 1028.73 1028.76 1028.76
1017.12 1016.60 1016.07 1015.64 1015.39 1015.37 1015.56 1015.91 1016.33 1016.70 1016.92 1016.94 1016.73 1016.36 1015.92 1015.55 1015.39 1015.55 1016.10 1017.05 1018.33 1019.83 1021.41 1022.91 1024.20 1025.21 1025.89 1026.27 1026.42 1026.43 1026.39 1026.40 1026.50 1026.72 1027.04 1027.44 1027.87 1028.27 1028.62 1028.88 1029.07 1029.20 1029.28 1029.34
1017.07 1016.62 1016.20 1015.88 1015.73 1015.76 1015.96 1016.27 1016.60 1016.83 1016.90 1016.76 1016.43 1015.95 1015.45 1015.06 1014.91 1015.11 1015.71 1016.72 1018.06 1019.62 1021.27 1022.84 1024.21 1025.30 1026.08 1026.56 1026.81 1026.90 1026.92 1026.95 1027.06 1027.26 1027.55 1027.91 1028.29 1028.67 1029.01 1029.29 1029.51 1029.68 1029.81 1029.92
1016.89 1016.55 1016.25 1016.06 1016.02 1016.12 1016.34 1016.60 1016.83 1016.94 1016.88 1016.62 1016.19 1015.66 1015.16 1014.80 1014.71 1014.98 1015.65 1016.71 1018.08 1019.66 1021.30 1022.87 1024.25 1025.37 1026.19 1026.74 1027.05 1027.22 1027.31 1027.39 1027.53 1027.75 1028.03 1028.38 1028.75 1029.12 1029.45 1029.75 1029.99 1030.19 1030.36 1030.52
1016.65 1016.40 1016.24 1016.19 1016.25 1016.42 1016.64 1016.85 1016.99 1016.98 1016.81 1016.46 1015.99 1015.47 1015.01 1014.75 1014.77 1015.14 1015.89 1016.99 1018.37 1019.92 1021.50 1023.01 1024.33 1025.41 1026.23 1026.80 1027.16 1027.40 1027.56 1027.73 1027.93 1028.19 1028.51 1028.87 1029.25 1029.62 1029.96 1030.26 1030.52 1030.74 1030.92 1031.10
1016.44 1016.30 1016.26 1016.32 1016.47 1016.66 1016.86 1017.00 1017.03 1016.91 1016.64 1016.23 1015.76 1015.30 1014.95 1014.82 1014.99 1015.49 1016.34 1017.48 1018.84 1020.32 1021.81 1023.20 1024.42 1025.42 1026.20 1026.76 1027.17 1027.47 1027.73 1027.98 1028.27 1028.61 1028.98 1029.39 1029.79 1030.17 1030.52 1030.82 1031.08 1031.30 1031.48 1031.65
1016.38 1016.35 1016.41 1016.55 1016.73 1016.91 1017.03 1017.06 1016.95 1016.71 1016.34 1015.89 1015.44 1015.07 1014.86 1014.90 1015.24 1015.89 1016.83 1018.01 1019.35 1020.76 1022.13 1023.40 1024.49 1025.40 1026.12 1026.68 1027.12 1027.49 1027.84 1028.20 1028.59 1029.01 1029.46 1029.91 1030.35 1030.75 1031.10 1031.40 1031.64 1031.84 1032.01 1032.15
1016.55 1016.61 1016.75 1016.92 1017.09 1017.19 1017.19 1017.05 1016.78 1016.38 1015.91 1015.42 1015.00 1014.71 1014.65 1014.86 1015.37 1016.17 1017.21 1018.43 1019.75 1021.09 1022.36 1023.50 1024.49 1025.32 1026.00 1026.56 1027.05 1027.50 1027.95 1028.41 1028.90 1029.41 1029.92 1030.42 1030.88 1031.29 1031.64 1031.93 1032.16 1032.34 1032.48 1032.59
1016.98 1017.13 1017.32 1017.48 1017.56 1017.53 1017.35 1017.02 1016.54 1015.97 1015.37 1014.82 1014.41 1014.20 1014.27 1014.63 1015.29 1016.22 1017.35 1018.61 1019.92 1021.21 1022.40 1023.47 1024.39 1025.17 1025.85 1026.44 1026.99 1027.52 1028.07 1028.63 1029.20 1029.78 1030.34 1030.86 1031.34 1031.75 1032.10 1032.38 1032.60 1032.76 1032.88 1032.97
1017.64 1017.86 1018.05 1018.15 1018.11 1017.91 1017.51 1016.95 1016.25 1015.49 1014.76 1014.14 1013.72 1013.57 1013.72 1014.20 1014.98 1016.00 1017.20 1018.49 1019.80 1021.07 1022.23 1023.26 1024.16 1024.96 1025.67 1026.32 1026.96 1027.58 1028.22 1028.86 1029.49 1030.10 1030.68 1031.21 1031.68 1032.09 1032.43 1032.71 1032.93 1033.10 1033.22 1033.31
1018.42 1018.67 1018.83 1018.84 1018.65 1018.25 1017.63 1016.84 1015.93 1014.99 1014.13 1013.44 1012.99 1012.86 1013.07 1013.62 1014.47 1015.55 1016.79 1018.10 1019.42 1020.67 1021.84 1022.88 1023.83 1024.68 1025.47 1026.22 1026.95 1027.67 1028.38 1029.08 1029.74 1030.37 1030.94 1031.45 1031.90 1032.29 1032.62 1032.91 1033.15 1033.35 1033.51 1033.63
1019.17 1019.41 1019.51 1019.40 1019.05 1018.45 1017.63 1016.64 1015.56 1014.49 1013.53 1012.78 1012.32 1012.19 1012.42 1013.00 1013.88 1014.97 1016.22 1017.53 1018.84 1020.11 1021.30 1022.40 1023.42 1024.37 1025.27 1026.13 1026.97 1027.78 1028.56 1029.28 1029.96 1030.56 1031.10 1031.57 1031.99 1032.36 1032.69 1033.00 1033.29 1033.54 1033.77 1033.95
1019.72 1019.92 1019.92 1019.68 1019.18 1018.42 1017.45 1016.33 1015.14 1014.00 1013.00 1012.24 1011.78 1011.66 1011.90 1012.48 1013.34 1014.41 1015.63 1016.92 1018.22 1019.49 1020.72 1021.89 1023.00 1024.07 1025.09 1026.07 1027.02 1027.90 1028.72 1029.47 1030.12 1030.68 1031.17 1031.60 1031.98 1032.33 1032.68 1033.03 1033.37 1033.70 1034.00 1034.26
1019.93 1020.04 1019.93 1019.57 1018.95 1018.09 1017.04 1015.87 1014.67 1013.55 1012.58 1011.86 1011.45 1011.36 1011.61 1012.18 1013.00 1014.02 1015.18 1016.42 1017.69 1018.97 1020.23 1021.46 1022.66 1023.83 1024.97 1026.06 1027.09 1028.04 1028.88 1029.62 1030.24 1030.76 1031.20 1031.58 1031.93 1032.27 1032.64 1033.02 1033.42 1033.83 1034.21 1034.55
1019.74 1019.74 1019.51 1019.04 1018.34 1017.44 1016.39 1015.26 1014.15 1013.13 1012.28 1011.68 1011.35 1011.33 1011.60 1012.15 1012.93 1013.89 1014.98 1016.16 1017.39 1018.64 1019.92 1021.19 1022.46 1023.72 1024.94 1026.11 1027.20 1028.18 1029.04 1029.76 1030.35 1030.83 1031.22 1031.56 1031.89 1032.23 1032.61 1033.03 1033.49 1033.95 1034.40 1034.79
1019.14 1019.02 1018.68 1018.13 1017.40 1016.52 1015.55 1014.55 1013.60 1012.76 1012.10 1011.66 1011.47 1011.55 1011.87 1012.43 1013.17 1014.07 1015.09 1016.20 1017.37 1018.59 1019.86 1021.15 1022.46 1023.76 1025.03 1026.24 1027.35 1028.35 1029.20 1029.90 1030.46 1030.90 1031.26 1031.58 1031.90 1032.25 1032.64 1033.09 1033.58 1034.08 1034.56 1034.98
1018.20 1017.96 1017.54 1016.95 1016.24 1015.44 1014.60 1013.79 1013.05 1012.45 1012.02 1011.79 1011.77 1011.97 1012.37 1012.95 1013.67 1014.53 1015.49 1016.53 1017.65 1018.84 1020.07 1021.36 1022.66 1023.97 1025.25 1026.46 1027.56 1028.54 1029.37 1030.05 1030.59 1031.01 1031.36 1031.68 1031.99 1032.35 1032.76 1033.22 1033.71 1034.22 1034.69 1035.10
1017.04 1016.70 1016.23 1015.65 1015.00 1014.32 1013.66 1013.06 1012.58 1012.23 1012.04 1012.03 1012.20 1012.53 1013.01 1013.63 1014.37 1015.20 1016.12 1017.13 1018.20 1019.35 1020.55 1021.81 1023.08 1024.36 1025.60 1026.78 1027.85 1028.79 1029.58 1030.23 1030.75 1031.17 1031.52 1031.84 1032.18 1032.54 1032.96 1033.41 1033.89 1034.37 1034.80 1035.17
1015.77 1015.39 1014.91 1014.37 1013.82 1013.29 1012.82 1012.46 1012.21 1012.11 1012.16 1012.35 1012.68 1013.14 1013.71 1014.39 1015.15 1016.00 1016.91 1017.90 1018.96 1020.08 1021.25 1022.47 1023.70 1024.92 1026.10 1027.21 1028.21 1029.09 1029.84 1030.45 1030.96 1031.38 1031.74 1032.09 1032.44 1032.83 1033.24 1033.68 1034.12 1034.55 1034.92 1035.22
1014.52 1014.14 1013.70 1013.24 1012.82 1012.45 1012.18 1012.03 1012.01 1012.12 1012.36 1012.72 1013.18 1013.75 1014.41 1015.15 1015.96 1016.83 1017.77 1018.78 1019.84 1020.96 1022.12 1023.30 1024.48 1025.63 1026.73 1027.75 1028.67 1029.47 1030.15 1030.73 1031.22 1031.64 1032.03 1032.40 1032.79 1033.18 1033.60 1034.01 1034.42 1034.78 1035.09 1035.31
1013.38 1013.04 1012.67 1012.33 1012.05 1011.86 1011.78 1011.82 1011.98 1012.26 1012.64 1013.13 1013.70 1014.35 1015.07 1015.87 1016.73 1017.66 1018.65 1019.70 1020.80 1021.94 1023.10 1024.26 1025.39 1026.47 1027.48 1028.40 1029.22 1029.93 1030.54 1031.07 1031.54 1031.97 1032.37 1032.78 1033.18 1033.60 1034.01 1034.41 1034.77 1035.08 1035.33 1035.49
Thickness
5544 5533 5530 5535 5536 5538 5535 5532 5531 5537 5541 5537 5535 5539 5545 5546 5544 5545 5546 5546 5548 5549 5548 5548 5549 5549 5550 5551 5551 5551 5551 5551 5551 5550 5549 5548 5546 5545 5544 5543 5543 5542 5542 5541
5528 5526 5535 5534 5532 5530 5528 5523 5522 5527 5532 5528 5526 5531 5538 5540 5540 5542 5543 5542 5542 5540 5539 5539 5540 5540 5540 5541 5541 5542 5542 5541 5542 5543 5542 5540 5538 5536 5536 5535 5533 5533 5532 5532
5525 5528 5531 5526 5522 5522 5521 5516 5515 5515 5518 5518 5514 5519 5528 5536 5535 5536 5536 5536 5534 5534 5532 5531 5531 5530 5530 5531 5531 5534 5533 5533 5533 5533 5533 5531 5529 5527 5525 5525 5524 5524 5523 5523
5514 5520 5521 5517 5514 5515 5512 5514 5512 5508 5500 5496 5503 5498 5519 5525 5526 5526 5526 5525 5524 5525 5524 5523 5522 5521 5521 5522 5522 5523 5524 5524 5524 5524 5524 5523 5522 5520 5518 5517 5516 5514 5514 5513
5505 5509 5510 5508 5508 5508 5505 5506 5502 5499 5492 5486 5488 5485 5506 5513 5517 5520 5519 5517 5515 5515 5514 5513 5513 5513 5512 5512 5513 5513 5513 5514 5514 5514 5515 5514 5513 5511 5509 5508 5506 5505 5504 5503
5494 5498 5498 5498 5499 5498 5495 5491 5486 5478 5473 5470 5481 5478 5496 5501 5514 5516 5513 5510 5507 5506 5504 5503 5502 5502 5502 5502 5502 5502 5503 5503 5504 5503 5504 5504 5503 5501 5500 5498 5497 5495 5494 5493
5481 5485 5487 5487 5486 5486 5482 5470 5457 5453 5445 5460 5477 5478 5493 5505 5507 5508 5505 5501 5498 5495 5493 5492 5492 5492 5492 5492 5491 5492 5492 5492 5492 5493 5493 5493 5492 5491 5490 5488 5487 5486 5484 5483
5465 5470 5476 5476 5477 5472 5469 5466 5452 5442 5442 5456 5466 5471 5491 5495 5495 5496 5494 5491 5488 5485 5483 5483 5483 5483 5482 5482 5481 5481 5482 5481 5481 5481 5481 5481 5481 5479 5478 5477 5476 5475 5474 5474
5456 5461 5466 5466 5467 5466 5458 5454 5457 5443 5430 5434 5454 5463 5478 5484 5485 5484 5482 5478 5476 5474 5473 5472 5472 5472 5472 5471 5471 5471 5471 5470 5471 5470 5470 5469 5469 5468 5467 5465 5464 5463 5463 5463
5453 5447 5454 5455 5457 5456 5455 5449 5437 5431 5423 5427 5453 5463 5472 5479 5477 5474 5470 5467 5466 5463 5461 5461 5461 5462 5462 5460 5460 5460 5460 5460 5460 5460 5458 5458 5457 5456 5455 5453 5452 5451 5451 5450
5445 5436 5437 5440 5441 5443 5441 5438 5435 5427 5425 5425 5432 5458 5473 5473 5470 5465 5460 5458 5455 5452 5450 5450 5450 5451 5450 5449 5448 5448 5448 5448 5448 5447 5447 5446 5444 5443 5442 5441 5440 5440 5439 5438
5435 5423 5419 5427 5433 5434 5434 5434 5429 5422 5416 5420 5431 5453 5463 5460 5457 5453 5449 5448 5445 5442 5441 5439 5439 5438 5437 5437 5437 5437 5437 5437 5437 5435 5434 5433 5432 5431 5430 5429 5428 5427 5426 5425
5424 5412 5406 5417 5420 5419 5420 5423 5423 5420 5415 5412 5417 5444 5448 5444 5442 5439 5437 5435 5432 5430 5428 5426 5425 5425 5425 5425 5425 5425 5426 5425 5424 5423 5422 5421 5419 5418 5417 5416 5415 5413 5412 5411
5422 5406 5407 5415 5422 5413 5408 5412 5412 5408 5404 5408 5421 5438 5439 5436 5432 5428 5425 5422 5419 5418 5415 5413 5412 5412 5412 5412 5413 5413 5413 5412 5411 5410 5409 5408 5407 5405 5404 5403 5402 5401 5400 5398
5408 5395 5392 5400 5404 5403 5403 5406 5406 5405 5409 5409 5425 5427 5438 5431 5424 5419 5415 5411 5409 5407 5404 5402 5401 5399 5399 5400 5400 5400 5400 5399 5399 5398 5397 5396 5394 5392 5390 5389 5388 5387 5386 5385
5392 5382 5378 5383 5392 5391 5396 5405 5406 5405 5405 5405 5411 5421 5426 5417 5409 5405 5402 5399 5397 5395 5393 5391 5390 5388 5387 5387 5387 5388 5387 5387 5386 5385 5384 5382 5380 5379 5377 5376 5375 5373 5372 5371
5376 5370 5370 5372 5376 5376 5383 5404 5406 5405 5403 5403 5407 5418 5408 5400 5398 5394 5390 5387 5385 5383 5382 5379 5377 5375 5375 5374 5375 5375 5375 5374 5373 5372 5371 5369 5367 5366 5364 5363 5361 5360 5358 5357
5369 5364 5357 5354 5357 5369 5406 5402 5401 5399 5396 5393 5395 5396 5393 5389 5382 5376 5374 5373 5371 5370 5368 5366 5364 5363 5362 5362 5361 5361 5361 5361 5360 5359 5358 5356 5354 5353 5351 5349 5348 5346 5345 5344
5370 5361 5349 5346 5350 5364 5386 5387 5381 5380 5383 5382 5380 5380 5375 5369 5365 5363 5363 5359 5357 5356 5355 5353 5351 5350 5349 5349 5348 5348 5348 5347 5346 5345 5344 5342 5341 5339 5337 5336 5335 5333 5332 5332
5358 5355 5349 5343 5348 5353 5384 5378 5372 5371 5371 5375 5369 5367 5362 5359 5358 5359 5353 5347 5344 5343 5341 5339 5338 5336 5336 5335 5334 5334 5334 5333 5333 5332 5330 5329 5327 5326 5324 5323 5321 5320 5320 5320
5345 5343 5345 5341 5342 5351 5360 5358 5360 5360 5371 5365 5359 5356 5351 5347 5349 5344 5338 5334 5331 5329 5327 5326 5324 5322 5321 5321 5320 5320 5319 5319 5319 5318 5316 5315 5313 5312 5311 5309 5308 5307 5307 5306
5342 5336 5334 5332 5334 5349 5350 5344 5349 5357 5353 5348 5345 5342 5337 5333 5329 5326 5323 5321 5318 5315 5313 5312 5310 5309 5307 5306 5305 5305 5305 5305 5304 5303 5301 5300 5299 5298 5297 5295 5294 5294 5293 5293
5335 5341 5337 5337 5345 5346 5337 5339 5338 5337 5336 5334 5330 5326 5322 5318 5314 5311 5309 5308 5305 5303 5300 5299 5296 5295 5294 5292 5292 5291 5292 5290 5289 5288 5287 5286 5285 5284 5283 5282 5281 5280 5280 5280
5321 5323 5323 5320 5329 5328 5323 5321 5321 5320 5320 5318 5315 5311 5307 5304 5302 5300 5298 5295 5293 5290 5287 5285 5282 5281 5280 5279 5278 5278 5277 5276 5275 5274 5274 5273 5272 5271 5269 5269 5269 5268 5268 5268
5317 5311 5310 5312 5318 5314 5314 5311 5309 5306 5303 5299 5297 5294 5291 5290 5288 5286 5283 5282 5280 5278 5274 5272 5269 5268 5267 5266 5265 5264 5263 5262 5261 5261 5261 5260 5259 5258 5257 5256 5256 5257 5258 5258
5304 5303 5307 5317 5315 5309 5309 5301 5296 5291 5288 5285 5282 5279 5276 5274 5273 5271 5269 5268 5266 5264 5262 5259 5256 5255 5254 5253 5252 5251 5250 5249 5248 5248 5248 5247 5246 5245 5244 5244 5244 5245 5246 5247